Location: Brodeslavy
(49.9527°N, 13.5567°E)
Time: 04:48:16
(UTC+00:00)

Cosmos 1328 - Pass Details

Date: 17 June 2025
Orbit: 474 x 489 km, 82.5° (Epoch: 12 July)

Event Time Altitude Azimuth Distance (km) Brightness Sun altitude
Exits shadow 22:47:16 36° 148° (SSE) 776 4.1 -16.5°
Maximum altitude 22:48:22 51° 96° (E) 608 3.9 -16.5°
Drops below altitude 10° 22:51:53 10° 19° (NNE) 1,656 7.3 -16.6°
Sets 22:54:01 0° 15° (NNE) 2,542 8.7 -16.6°
